Location: Unspecified
(48.8656°N, 0.0000°E)
Time: 10:34:45
(UTC+00:00)

A-11 Canister half - Visible Passes

Search period start: 16 June 2019 00:00
Search period end: 26 June 2019 00:00
Orbit: 1525 x 1684 km, 47.3° (Epoch: 15 June)

Date Brightness Start Highest point End Pass type
(mag) Time Alt. Az. Time Alt. Az. Time Alt. Az.
21 Jun 10.4 03:11:08 10° S 03:18:03 23° SE 03:24:51 10° E visible
22 Jun 10.4 02:49:48 10° S 02:56:30 22° SE 03:03:07 10° E visible
23 Jun 10.5 02:28:30 10° S 02:34:59 21° SE 02:41:23 10° E visible
24 Jun 10.5 02:07:11 10° S 02:13:27 20° SE 02:19:37 10° E visible
25 Jun 10.5 01:45:56 10° SSE 01:51:55 19° SE 01:57:50 10° E visible
